Tracking 25656 objects as of 21-May-2022
HD Live streaming from Space Station
objects crossing your sky now

COSMOS 2251 DEB

Track COSMOS 2251 DEB now!
10-day predictions


NORAD ID: 36076
Int'l Code: 1993-036AYP
Perigee: 621.6 km
Apogee: 681.0 km
Inclination: 73.8 °
Period: 97.6 minutes
Semi major axis: 7022 km
RCS: 0.0146 m2 (small)
Launch date: June 16, 1993
Source: Commonwealth of Independent States (former USSR) (CIS)
Launch site: PLESETSK MISSILE AND SPACE COMPLEX (PKMTR)

Note: This is SATELLITE DEBRIS
aabbcc
Your satellite tracking list
Your tracking list is empty




NASA's NSSDC Master Catalog

Two Line Element Set (TLE):
1 36076U 93036AYP 22112.47351335  .00018249  00000-0  26516-2 0  9998
2 36076  73.8373 161.4266 0042342 282.0464  77.5964 14.75317157672400
Source of the keplerian elements: AFSPC